Simultaneous Nadir Overpasses (SNOs) Predictions

Prediction of SNOs between TERRA and METOP-C Satellite Orbit:

Table of predicted SNOs for the next 14.0 days since TLE Epoch: 2/11/2023
Index Date (TERRA) Time (TERRA) Lat,Lon (TERRA) SZA (TERRA ) Date (METOP-C) Time (METOP-C) Lat,Lon (METOP-C) SZA (METOP-C ) Distance(km) Time Diff (sec)
1 02/11/2023 19:32:05 -80.95, 102.45 83.86 02/11/2023 19:32:06 -80.95, 102.53 83.85 1.43 1
2 02/14/2023 10:54:09 80.90, 51.35 95.18 02/14/2023 10:53:07 80.90, 51.33 95.16 0.26 62
3 02/14/2023 11:43:31 -80.93,-140.65 84.79 02/14/2023 11:43:47 -80.93,-140.74 84.79 1.53 16
4 02/17/2023 03:05:33 80.91, 168.52 94.27 02/17/2023 03:04:46 80.91, 168.60 94.26 1.56 47
5 02/17/2023 03:54:55 -80.94, -23.43 85.69 02/17/2023 03:55:26 -80.94, -23.41 85.67 0.79 31
6 02/19/2023 19:16:56 80.91, -74.34 93.33 02/19/2023 19:16:25 80.92, -74.25 93.33 1.78 31
7 02/19/2023 20:06:18 -80.94, 93.76 86.62 02/19/2023 20:07:05 -80.95, 93.80 86.59 1.10 47
8 02/22/2023 11:28:16 80.94, 43.13 92.42 02/22/2023 11:28:02 80.93, 43.16 92.42 0.64 14



Historial Predications of SNOs between TERRA and METOP-C
